Joplin, MO

3:02 PM CST on November 16, 2019 (GMT -0600)
Joplin Regional

Weather History for KJLN - September, 2019

Change the Weather History Date:

Thursday, September 12, 2019

  Actual Average Record
Temperature  
Mean Temperature 79 °F 72 °F  
Max Temperature 90 °F 84 °F 97 °F (1956)
Min Temperature 68 °F 61 °F 46 °F (1959)
Degree Days  
Heating Degree Days 0 1  
Month to date heating degree days 0 1  
Since 1 July heating degree days 0 2  
Cooling Degree Days 14 8  
Month to date cooling degree days 182 118  
Year to date cooling degree days 1433 1545  
Growing Degree Days 29 (Base 50)    
Moisture  
Dew Point 68 °F    
Average Humidity 75    
Maximum Humidity 100    
Minimum Humidity 52    
Precipitation  
Precipitation 0.31 in 0.18 in 1.12 in (2000)
Month to date precipitation 0.31 1.94  
Year to date precipitation 49.20 32.91  
Sea Level Pressure  
Sea Level Pressure 30.06 in    
Wind  
Wind Speed 10 mph ()    
Max Wind Speed 29 mph    
Max Gust Speed 42 mph    
Visibility 9.0 miles    
Events Rain , Thunderstorm    
T = Trace of Precipitation, MM = Missing Value Source: Averaged Metar Reports

Daily Weather History Graph

Daily Weather History Graph

Search for Another Location

Airport or City:

Astronomy

Sep. 12, 2019 Rise Set
Actual Time 6:57 AM CDT 7:30 PM CDT
Civil Twilight 6:31 AM CDT 7:56 PM CDT
Nautical Twilight 6:00 AM CDT 8:27 PM CDT
Astronomical Twilight 5:28 AM CDT 8:58 PM CDT
Moon 7:12 PM CDT (9/12) 5:21 AM CDT (9/12)
Length of Visible Light 13h 25m
Length of Day
12h 32m
Waxing Gibbous, 98% of the Moon is Illuminated
Sep 12
Waxing Gibbous
Sep 13
Full
Sep 21
Last Quarter
Sep 28
New
Oct 5
First Quarter

Hourly Weather History & Observations

Time (CDT) Temp. Heat Index Dew Point Humidity Pressure Visibility Wind Dir Wind Speed Gust Speed Precip Events Conditions
12:53 AM 78.1 °F - 68.0 °F 71% 29.99 in 10.0 mi South 11.5 mph - N/A   Clear
1:53 AM 77.0 °F - 68.0 °F 74% 30.00 in 10.0 mi South 8.1 mph - N/A   Clear
2:53 AM 77.0 °F - 68.0 °F 74% 29.99 in 10.0 mi South 9.2 mph - N/A   Clear
3:53 AM 77.0 °F - 68.0 °F 74% 30.00 in 10.0 mi South 11.5 mph - N/A   Clear
4:53 AM 75.9 °F - 68.0 °F 76% 30.01 in 10.0 mi South 9.2 mph - N/A   Clear
5:53 AM 75.0 °F - 68.0 °F 79% 30.03 in 10.0 mi South 9.2 mph - N/A   Clear
6:53 AM 73.9 °F - 68.0 °F 82% 30.05 in 10.0 mi South 8.1 mph - N/A   Clear
7:53 AM 75.0 °F - 68.0 °F 79% 30.06 in 10.0 mi South 10.4 mph - N/A   Clear
8:53 AM 79.0 °F - 69.1 °F 72% 30.06 in 10.0 mi South 12.7 mph - N/A   Clear
9:53 AM 82.0 °F 85.9 °F 70.0 °F 67% 30.06 in 10.0 mi South 12.7 mph 21.9 mph N/A   Clear
10:53 AM 84.9 °F 89.4 °F 70.0 °F 61% 30.04 in 10.0 mi SSW 17.3 mph - N/A   Clear
11:53 AM 86.0 °F 90.7 °F 70.0 °F 59% 30.05 in 10.0 mi SSW 16.1 mph 27.6 mph N/A   Clear
12:53 PM 88.0 °F 92.9 °F 70.0 °F 55% 30.05 in 10.0 mi SSW 16.1 mph 26.5 mph N/A   Clear
1:53 PM 89.1 °F 93.7 °F 69.1 °F 52% 30.03 in 10.0 mi SSW 18.4 mph 28.8 mph N/A   Clear
2:53 PM 89.1 °F 94.1 °F 70.0 °F 53% 30.01 in 10.0 mi SSW 20.7 mph 28.8 mph N/A   Clear
3:53 PM 89.1 °F 94.1 °F 70.0 °F 53% 29.99 in 10.0 mi South 10.4 mph 24.2 mph N/A   Clear
4:53 PM 88.0 °F 92.9 °F 70.0 °F 55% 29.99 in 10.0 mi South 15.0 mph - N/A   Partly Cloudy
5:53 PM 84.9 °F 88.8 °F 69.1 °F 59% 29.98 in 10.0 mi South 9.2 mph - N/A   Clear
6:53 PM 82.9 °F 87.0 °F 70.0 °F 65% 29.99 in 10.0 mi South 8.1 mph - N/A   Clear
7:53 PM 81.0 °F 84.4 °F 70.0 °F 69% 30.02 in 10.0 mi South 6.9 mph - N/A   Clear
8:53 PM 73.0 °F - 63.0 °F 71% 30.13 in 9.0 mi NNW 28.8 mph 41.4 mph N/A   Overcast
9:05 PM 71.1 °F - 63.0 °F 75% 30.16 in 10.0 mi NNW 19.6 mph 38.0 mph N/A Thunderstorm Overcast
9:31 PM 68.0 °F - 64.9 °F 90% 30.17 in 10.0 mi NNW 13.8 mph 25.3 mph 0.00 in Rain , Thunderstorm Light Thunderstorms and Rain
9:53 PM 68.0 °F - 66.9 °F 96% 30.13 in 4.0 mi East 6.9 mph - 0.08 in Rain , Thunderstorm Heavy Thunderstorms and Rain
9:57 PM 68.0 °F - 66.0 °F 93% 30.12 in 1.8 mi ESE 16.1 mph 19.6 mph 0.14 in Rain , Thunderstorm Heavy Thunderstorms and Rain
10:06 PM 68.0 °F - 66.9 °F 96% 30.13 in 3.0 mi North 4.6 mph - 0.16 in Rain , Thunderstorm Light Thunderstorms and Rain
10:49 PM 69.8 °F - 68.0 °F 94% 30.11 in 2.5 mi SW 8.1 mph - N/A Rain Light Rain
10:53 PM 69.1 °F - 68.0 °F 96% 30.09 in 10.0 mi West 8.1 mph - 0.19 in Rain , Thunderstorm Light Thunderstorms and Rain
11:12 PM 69.1 °F - 68.0 °F 96% 30.13 in 10.0 mi WNW 3.5 mph - 0.01 in Rain Light Rain
11:53 PM 69.1 °F - 69.1 °F 100% 30.11 in 10.0 mi WSW 3.5 mph - 0.01 in   Mostly Cloudy